{"data":{"norad_id":52307,"epoch":"2026-05-25T02:16:48.859680Z","epoch_age_seconds":69866,"freshness":"FRESH","line1":"1 52307U 22041AY  26145.09500995  .00000706  00000+0  62437-4 0  9999","line2":"2 52307  53.2153 116.1226 0001167  82.6240 277.4885 15.08835392226043","mean_motion":15.08835392,"eccentricity":0.0001167,"inclination_deg":53.2153,"raan_deg":116.1226,"arg_perigee_deg":82.624,"mean_anomaly_deg":277.4885,"bstar":6.2437e-5,"rev_number":22604,"period_min":95.437846145115,"perigee_km":538.9501555274,"apogee_km":540.56479209758,"semimajor_km":6917.8944738125,"source":"CELESTRAK","updated_at":"2026-05-25T13:38:17.110576Z"}}